Location: Blackfoot
(53.5367°N, 112.7800°W)
Time: 22:55:18
(UTC-06:00)

Amateur Radio Satellites - All Passes

Search period start: 05 July 2015 22:25
Search period end: 06 July 2015 22:25
Location: Blackfoot, 53.5367°N, 112.7800°W

Satellite Date Start Highest point End Downlink Frequencies (MHz)
Time Altitude Azimuth
ESTCUBE 1 05 Jul 22:27:14 22:30:38 22° 58° (ENE) 22:34:09 437.505/2401.250
M-CUBED/EXP-1 PRIME 05 Jul 22:27:18 22:31:22 51° 107° (ESE) 22:35:43 437.505
SEEDS 05 Jul 22:27:29 22:30:49 22° 270° (W) 22:34:06 437.485
PCSat 05 Jul 22:30:42 22:35:10 25° 21° (NNE) 22:39:40 145.827
AAUSAT CUBESAT 2 05 Jul 22:34:30 22:38:00 25° 268° (W) 22:41:30 437.432
50 SAT 05 Jul 22:35:25 22:38:48 31° 65° (ENE) 22:42:14 437.505
VELOX 1 05 Jul 22:37:46 22:41:47 34° 64° (ENE) 22:45:50 145.980
DELFI C3 05 Jul 22:38:50 22:42:47 57° 259° (W) 22:46:48 145.870
DX 1 05 Jul 22:41:03 22:45:21 58° 69° (ENE) 22:49:42 434.975-435.025
GONETS M04 05 Jul 22:54:08 23:01:04 27° 282° (WNW) 23:07:45
ZACube-1 05 Jul 22:57:19 23:01:21 45° 261° (W) 23:05:22 437.345
UKube-1 05 Jul 22:59:35 23:03:56 79° 72° (ENE) 23:08:18 .
SPROUT 05 Jul 23:00:38 23:02:41 13° 54° (NE) 23:04:51 437.525
CUBEBUG 2 05 Jul 23:02:19 23:06:02 28° 266° (W) 23:09:39 437.445
Oscar 11 05 Jul 23:03:12 23:06:55 27° 267° (W) 23:10:38 145.826/435.025
HUMSAT D 05 Jul 23:03:19 23:07:25 81° 255° (WSW) 23:11:33 437.325/437.525
COMPASS 1 05 Jul 23:03:53 23:05:58 13° 276° (W) 23:07:51 437.405
ANTELSAT 05 Jul 23:21:09 23:24:37 23° 91° (E) 23:28:13 437.575/2403.000
STRAND 1 05 Jul 23:23:20 23:25:07 12° 315° (NW) 23:26:42 437.568
AISAT 05 Jul 23:24:50 23:29:19 86° 74° (ENE) 23:33:49 437.250
AUBIESAT-1 05 Jul 23:26:16 23:30:19 55° 296° (WNW) 23:34:39 437.475
DUCHIFAT 1 05 Jul 23:26:30 23:27:38 11° 83° (E) 23:28:59 145.980
TIGRISAT 05 Jul 23:32:38 23:36:23 28° 94° (E) 23:40:14 435.000
POLYITAN 1 05 Jul 23:32:50 23:34:54 14° 86° (E) 23:37:08 437.675
FUNcube-1 05 Jul 23:33:46 23:37:08 23° 269° (W) 23:40:24 145.935
TISAT 1 05 Jul 23:35:09 23:38:00 18° 58° (ENE) 23:40:56 437.305
CUBEBUG 1 05 Jul 23:37:49 23:42:13 67° 71° (ENE) 23:46:39 437.445
SO-50 05 Jul 23:52:12 23:56:50 37° 28° (NNE) 00:01:27 436.795
UWE-3 05 Jul 23:52:14 23:54:20 13° 275° (W) 23:56:15 435.000/436.395/437.385
Cosmos 2499 05 Jul 23:55:43 00:02:46 39° 273° (W) 00:10:12 435.465 / 435.565
QB50P2 06 Jul 00:01:19 00:04:47 25° 92° (E) 00:08:18 145.880/145.840
POPSAT HIP 1 06 Jul 00:01:39 00:05:05 24° 92° (E) 00:08:32 437.405
M-CUBED/EXP-1 PRIME 06 Jul 00:02:33 00:06:00 26° 304° (WNW) 00:09:38 437.505
ESTCUBE 1 06 Jul 00:02:35 00:07:07 67° 257° (WSW) 00:11:42 437.505/2401.250
50 SAT 06 Jul 00:09:57 00:13:25 31° 265° (W) 00:16:52 437.505
UNISAT 6 06 Jul 00:12:45 00:17:06 64° 101° (ESE) 00:21:33 437.425
VELOX 1 06 Jul 00:14:09 00:18:19 37° 263° (W) 00:22:29 145.980
PCSat 06 Jul 00:14:10 00:19:36 64° 45° (NE) 00:25:00 145.827
DX 1 06 Jul 00:18:35 00:21:59 21° 269° (W) 00:25:18 434.975-435.025
SPROUT 06 Jul 00:33:47 00:38:05 75° 74° (ENE) 00:42:25 437.525
UKube-1 06 Jul 00:37:58 00:40:39 16° 273° (W) 00:43:14 .
QB50P1 06 Jul 00:40:06 00:44:15 53° 100° (E) 00:48:22 145.935-145.965
HUMSAT D 06 Jul 00:42:45 00:43:57 11° 277° (W) 00:44:58 437.325/437.525
BEESAT 06 Jul 00:43:59 00:47:24 20° 56° (NE) 00:50:56 436.000
NANOSAT C BR1 06 Jul 00:53:39 00:57:52 71° 103° (ESE) 01:02:04 145.865
Cosmos 2491 06 Jul 00:54:46 01:01:33 25° 49° (NE) 01:08:30 435.465 / 435.565
ANTELSAT 06 Jul 00:57:27 01:01:43 53° 291° (WNW) 01:06:03 437.575/2403.000
SWISSCUBE 06 Jul 00:59:08 01:03:07 27° 60° (ENE) 01:07:10 437.505
DUCHIFAT 1 06 Jul 01:00:01 01:04:15 80° 104° (ESE) 01:08:27 145.980
AUBIESAT-1 06 Jul 01:02:50 01:04:23 12° 314° (NW) 01:05:51 437.475
AISAT 06 Jul 01:03:59 01:06:35 15° 274° (W) 01:09:02 437.250
ITUPSAT 1 06 Jul 01:05:11 01:09:13 28° 60° (ENE) 01:13:19 437.325
POLYITAN 1 06 Jul 01:07:14 01:11:28 85° 286° (WNW) 01:15:41 437.675
TISAT 1 06 Jul 01:09:05 01:13:20 73° 258° (WSW) 01:17:34 437.305
TIGRISAT 06 Jul 01:09:10 01:13:18 43° 293° (WNW) 01:17:29 435.000
BUGSAT 1 06 Jul 01:09:51 01:13:57 69° 103° (ESE) 01:17:58 437.445
CUBEBUG 1 06 Jul 01:15:51 01:19:03 19° 271° (W) 01:22:10 437.445
AIST 1 06 Jul 01:25:04 01:26:04 11° 53° (NE) 01:27:14
SO-50 06 Jul 01:32:46 01:37:44 69° 230° (SW) 01:42:38 436.795
KKS-1 06 Jul 01:33:40 01:35:24 12° 51° (NE) 01:37:18 437.445
QB50P2 06 Jul 01:36:50 01:40:54 46° 292° (WNW) 01:44:56 145.880/145.840
POPSAT HIP 1 06 Jul 01:37:08 01:41:11 47° 292° (WNW) 01:45:13 437.405
YUBILEINY 06 Jul 01:44:03 01:46:04 11° 64° (ENE) 01:48:40 435.215
ESTCUBE 1 06 Jul 01:44:03 01:44:59 10° 279° (W) 01:45:40 437.505/2401.250
UNISAT 6 06 Jul 01:50:14 01:53:33 21° 301° (WNW) 01:56:50 437.425
PCSat 06 Jul 01:57:59 02:02:45 31° 246° (WSW) 02:07:25 145.827
SPROUT 06 Jul 02:11:58 02:14:44 16° 273° (W) 02:17:23 437.525
QB50P1 06 Jul 02:16:30 02:19:50 23° 300° (WNW) 02:23:07 145.935-145.965
BEESAT 06 Jul 02:19:58 02:24:45 80° 254° (WSW) 02:29:36 436.000
STARS 06 Jul 02:19:59 02:23:00 19° 57° (ENE) 02:26:06 437.465
RS-15 06 Jul 02:22:14 02:31:42 37° 110° (ESE) 02:41:40 29.354- 29.394
NANOSAT C BR1 06 Jul 02:30:20 02:33:17 18° 302° (WNW) 02:36:09 145.865
SWISSCUBE 06 Jul 02:36:00 02:40:43 56° 260° (W) 02:45:28 437.505
DUCHIFAT 1 06 Jul 02:36:50 02:39:34 17° 303° (WNW) 02:42:13 145.980
ANTELSAT 06 Jul 02:36:57 02:37:40 10° 310° (NW) 02:38:13 437.575/2403.000
Oscar 19 06 Jul 02:38:22 02:43:11 39° 96° (E) 02:47:59 437.125/150
ITUPSAT 1 06 Jul 02:42:09 02:46:53 54° 260° (W) 02:51:38 437.325
POLYITAN 1 06 Jul 02:44:24 02:46:47 15° 305° (NW) 02:49:02 437.675
BUGSAT 1 06 Jul 02:46:11 02:49:00 18° 302° (WNW) 02:51:42 437.445
TISAT 1 06 Jul 02:49:07 02:49:57 10° 277° (W) 02:50:35 437.305
Cosmos 2491 06 Jul 02:51:24 03:00:13 77° 76° (ENE) 03:08:58 435.465 / 435.565
ITAMSAT 1 06 Jul 02:54:22 02:57:55 19° 87° (E) 03:01:35 435.822/435.867
Gurwin Techsat 1B 06 Jul 02:57:52 03:01:50 21° 88° (E) 03:05:55 435.225
AIST 1 06 Jul 03:00:24 03:04:47 62° 75° (ENE) 03:09:05
KKS-1 06 Jul 03:06:52 03:11:15 63° 70° (ENE) 03:15:41 437.445
SO-50 06 Jul 03:14:46 03:17:32 15° 249° (WSW) 03:20:05 436.795
JAS-2 06 Jul 03:18:29 03:22:01 15° 81° (E) 03:26:05 435.910
YUBILEINY 06 Jul 03:32:39 03:40:44 47° 88° (E) 03:48:56 435.215
MOZHAYETS 4 06 Jul 03:37:52 03:41:12 21° 58° (ENE) 03:44:40
AO-7 06 Jul 03:41:39 03:45:28 14° 77° (ENE) 03:49:48 29.400- 29.500
STARS 06 Jul 03:54:35 03:58:59 76° 256° (WSW) 04:03:24 437.465
BEESAT 06 Jul 04:01:03 04:03:30 13° 276° (W) 04:05:44 436.000
Oscar 19 06 Jul 04:17:48 04:22:36 40° 296° (WNW) 04:27:20 437.125/150
RS-15 06 Jul 04:32:03 04:43:06 86° 317° (NW) 04:54:38 29.354- 29.394
ITAMSAT 1 06 Jul 04:32:53 04:38:10 84° 288° (WNW) 04:43:23 435.822/435.867
Gurwin Techsat 1B 06 Jul 04:37:07 04:42:28 75° 290° (WNW) 04:47:47 435.225
AIST 1 06 Jul 04:38:58 04:42:00 18° 275° (W) 04:44:56
KKS-1 06 Jul 04:45:00 04:48:20 20° 270° (W) 04:51:35 437.445
Cosmos 2491 06 Jul 04:48:57 04:56:25 32° 279° (W) 05:03:40 435.465 / 435.565
JAS-2 06 Jul 05:01:54 05:08:20 65° 102° (ESE) 05:15:34 435.910
MOZHAYETS 4 06 Jul 05:13:25 05:18:00 72° 257° (WSW) 05:22:39
YUBILEINY 06 Jul 05:29:04 05:37:34 54° 292° (WNW) 05:46:05 435.215
HORYU 2 06 Jul 05:29:25 05:33:53 64° 103° (ESE) 05:38:19 437.375
AO-7 06 Jul 05:32:18 05:40:32 56° 102° (ESE) 05:48:44 29.400- 29.500
STARS 06 Jul 05:34:48 05:36:18 11° 277° (W) 05:37:36 437.465
CUBESAT XI-V 06 Jul 05:45:37 05:49:45 32° 63° (ENE) 05:53:58 437.345
STRAND 1 06 Jul 05:48:05 05:51:37 19° 53° (NE) 05:55:16 437.568
Cosmos 2504 06 Jul 05:53:25 05:59:36 38° 87° (E) 06:05:58 435.465 / 435.565
ITAMSAT 1 06 Jul 06:13:21 06:17:00 19° 308° (NW) 06:20:32 435.822/435.867
Gurwin Techsat 1B 06 Jul 06:18:12 06:21:42 18° 309° (NW) 06:25:03 435.225
Cubesat XI-IV 06 Jul 06:18:47 06:20:30 12° 80° (E) 06:22:29 437.490
RS-15 06 Jul 06:46:11 06:56:59 51° 347° (NNW) 07:08:18 29.354- 29.394
PRISM 06 Jul 06:47:14 06:51:07 38° 66° (ENE) 06:55:04 437.425
JAS-2 06 Jul 06:47:29 06:53:12 35° 300° (WNW) 06:59:28 435.910
MOZHAYETS 4 06 Jul 06:54:36 06:56:12 11° 278° (W) 06:57:34
BEESAT 2 06 Jul 07:04:02 07:05:07 11° 112° (ESE) 07:06:24 435.950
HORYU 2 06 Jul 07:06:42 07:10:09 22° 302° (WNW) 07:13:33 437.375
AUBIESAT-1 06 Jul 07:13:51 07:15:08 12° 46° (NE) 07:16:33 437.475
DANDE 06 Jul 07:14:41 07:16:52 12° 87° (E) 07:19:08 436.750
CUTE-I 06 Jul 07:21:51 07:26:45 35° 95° (E) 07:31:39 437.470
O/OREOS (USA 219) 06 Jul 07:21:57 07:25:05 20° 103° (ESE) 07:28:22 437.305
CUBESAT XI-V 06 Jul 07:22:33 07:27:06 44° 263° (W) 07:31:38 437.345
STRAND 1 06 Jul 07:25:01 07:30:12 87° 76° (ENE) 07:35:25 437.568
AO-7 06 Jul 07:25:22 07:33:21 49° 305° (NW) 07:41:13 29.400- 29.500
YUBILEINY 06 Jul 07:31:20 07:37:00 18° 320° (NW) 07:42:24 435.215
CUSAT 1 06 Jul 07:37:47 07:41:51 21° 93° (E) 07:45:18 437.405
Cosmos 2504 06 Jul 07:44:55 07:51:39 52° 290° (WNW) 07:58:31 435.465 / 435.565
M-CUBED/EXP-1 PRIME 06 Jul 07:48:12 07:50:59 24° 55° (NE) 07:53:56 437.505
Cubesat XI-IV 06 Jul 07:56:29 08:01:50 63° 102° (ESE) 08:07:10 437.490
BRITE-PL 06 Jul 08:05:21 08:06:16 11° 81° (E) 08:07:23 437.365/2234.400
GONETS M04 06 Jul 08:11:42 08:17:50 23° 75° (ENE) 08:24:14
PRISM 06 Jul 08:22:57 08:26:39 29° 265° (W) 08:30:22 437.425
BEESAT 3 06 Jul 08:23:24 08:27:26 59° 129° (SE) 08:31:30 437.485
AIST 2 06 Jul 08:33:07 08:36:20 22° 117° (ESE) 08:39:39 435.215
JAS-2 06 Jul 08:35:18 08:36:47 11° 322° (NW) 08:38:02 435.910
BEESAT 2 06 Jul 08:38:22 08:42:28 65° 130° (SE) 08:46:35 435.950
AUBIESAT-1 06 Jul 08:45:50 08:49:14 76° 67° (ENE) 08:52:52 437.475
ISS 06 Jul 08:47:06 08:49:15 17° 146° (SE) 08:51:27 145.825
DANDE 06 Jul 08:53:13 08:59:40 66° 101° (E) 09:04:29 436.750
O/OREOS (USA 219) 06 Jul 08:59:39 09:04:06 68° 303° (WNW) 09:08:35 437.305
RS-15 06 Jul 09:00:51 09:11:57 54° 19° (NNE) 09:23:36 29.354- 29.394
CUTE-I 06 Jul 09:01:51 09:07:01 47° 295° (WNW) 09:12:07 437.470
STRAND 1 06 Jul 09:06:40 09:10:10 18° 274° (W) 09:13:32 437.568
GOMX 1 06 Jul 09:06:50 09:10:18 24° 91° (E) 09:13:45 467.674
CUSAT 1 06 Jul 09:18:43 09:24:20 62° 286° (WNW) 09:28:32 437.405
AO-7 06 Jul 09:18:44 09:24:22 20° 329° (NNW) 09:29:50 29.400- 29.500
CUTE 1.7 + AOD 2 06 Jul 09:19:37 09:22:47 20° 89° (E) 09:26:02 437.475
M-CUBED/EXP-1 PRIME 06 Jul 09:22:31 09:25:41 37° 256° (WSW) 09:29:02 437.505
CANX-2 06 Jul 09:23:07 09:26:34 23° 91° (E) 09:30:04 2200.000
HO-68 06 Jul 09:32:05 09:38:29 35° 93° (E) 09:44:58 435.675
Cubesat XI-IV 06 Jul 09:37:04 09:41:38 28° 302° (WNW) 09:46:07 437.490
DOVE 4 06 Jul 09:40:55 09:44:41 32° 95° (E) 09:48:27 437.250
BRITE-PL 06 Jul 09:41:23 09:45:49 79° 103° (ESE) 09:50:00 437.365/2234.400
Cosmos 2504 06 Jul 09:42:17 09:45:58 14° 317° (NW) 09:49:27 435.465 / 435.565
UNISAT 6 06 Jul 09:42:55 09:45:57 20° 58° (ENE) 09:49:04 437.425
UWE-3 06 Jul 09:58:17 09:59:23 11° 83° (E) 10:00:42 435.000/436.395/437.385
BEESAT 3 06 Jul 10:01:53 10:05:38 33° 330° (NNW) 10:09:23 437.485
SEEDS 06 Jul 10:04:07 10:08:10 41° 97° (E) 10:12:15 437.485
GONETS M04 06 Jul 10:04:42 10:13:28 80° 97° (E) 10:22:14
QB50P1 06 Jul 10:05:12 10:07:40 16° 56° (NE) 10:10:15 145.935-145.965
AAUSAT CUBESAT 2 06 Jul 10:10:09 10:14:00 34° 95° (E) 10:17:52 437.432
AIST 2 06 Jul 10:10:15 10:14:32 73° 317° (NW) 10:18:50 435.215
CINEMA 3 06 Jul 10:11:34 10:15:19 32° 95° (E) 10:19:08 145.822/145.860
DELFI C3 06 Jul 10:12:45 10:14:46 14° 86° (E) 10:16:56 145.870
BEESAT 2 06 Jul 10:17:05 10:20:50 31° 331° (NNW) 10:24:34 435.950
NANOSAT C BR1 06 Jul 10:17:59 10:20:57 19° 58° (ENE) 10:23:59 145.865
ISS 06 Jul 10:22:01 10:25:10 46° 164° (SSE) 10:28:18 145.825
AUBIESAT-1 06 Jul 10:23:22 10:24:39 11° 268° (W) 10:25:49 437.475
DUCHIFAT 1 06 Jul 10:23:59 10:27:06 21° 60° (ENE) 10:30:18 145.980
ANTELSAT 06 Jul 10:26:15 10:30:16 42° 67° (ENE) 10:34:20 437.575/2403.000
POLYITAN 1 06 Jul 10:31:25 10:34:50 25° 61° (ENE) 10:38:18 437.675
BUGSAT 1 06 Jul 10:32:04 10:34:53 18° 58° (ENE) 10:37:46 437.445
TIGRISAT 06 Jul 10:37:32 10:41:40 51° 69° (ENE) 10:45:49 435.000
COMPASS 1 06 Jul 10:37:54 10:42:09 70° 103° (ESE) 10:46:23 437.405
DANDE 06 Jul 10:38:04 10:43:03 25° 295° (WNW) 10:46:59 436.750
ZACube-1 06 Jul 10:39:32 10:42:46 21° 91° (E) 10:46:06 437.345
O/OREOS (USA 219) 06 Jul 10:41:26 10:44:25 17° 326° (NW) 10:47:20 437.305
HUMSAT D 06 Jul 10:42:55 10:44:02 11° 83° (E) 10:45:21 437.325/437.525
Oscar 11 06 Jul 10:43:19 10:47:20 35° 96° (E) 10:51:22 145.826/435.025
CUTE-I 06 Jul 10:43:53 10:45:58 12° 316° (NW) 10:47:52 437.470
GOMX 1 06 Jul 10:44:39 10:48:44 44° 292° (WNW) 10:52:40 467.674
CUBEBUG 2 06 Jul 10:45:59 10:49:52 35° 96° (E) 10:53:50 437.445
Cosmos 2499 06 Jul 10:47:44 10:53:58 36° 86° (E) 11:00:29 435.465 / 435.565
CUTE 1.7 + AOD 2 06 Jul 10:54:50 10:59:05 58° 289° (WNW) 11:03:17 437.475
CANX-2 06 Jul 10:58:36 11:02:46 49° 291° (WNW) 11:06:55 2200.000
QB50P2 06 Jul 11:00:03 11:04:03 42° 67° (ENE) 11:08:05 145.880/145.840
POPSAT HIP 1 06 Jul 11:00:15 11:04:14 41° 67° (ENE) 11:08:14 437.405
CUSAT 1 06 Jul 11:06:16 11:07:31 11° 303° (WNW) 11:08:30 437.405
AO-7 06 Jul 11:10:53 11:13:59 13° 357° (N) 11:17:04 29.400- 29.500
AISAT 06 Jul 11:11:33 11:12:31 11° 83° (E) 11:13:42 437.250
RS-15 06 Jul 11:13:59 11:25:35 86° 228° (SW) 11:37:43 29.354- 29.394
FUNcube-1 06 Jul 11:14:18 11:18:18 42° 98° (E) 11:22:23 145.935
UNISAT 6 06 Jul 11:18:05 11:22:21 67° 258° (WSW) 11:26:38 437.425
DOVE 4 06 Jul 11:18:44 11:22:31 33° 295° (WNW) 11:26:14 437.250
HO-68 06 Jul 11:19:39 11:26:45 65° 295° (WNW) 11:33:48 435.675
BRITE-PL 06 Jul 11:20:56 11:23:50 17° 304° (NW) 11:26:33 437.365/2234.400
UWE-3 06 Jul 11:32:29 11:36:43 79° 103° (ESE) 11:41:00 435.000/436.395/437.385
YUBILEINY 06 Jul 11:38:14 11:41:18 12° 28° (NNE) 11:44:41 435.215
QB50P1 06 Jul 11:38:44 11:42:59 89° 244° (WSW) 11:47:15 145.935-145.965
50 SAT 06 Jul 11:39:15 11:42:06 20° 90° (E) 11:45:03 437.505
SEEDS 06 Jul 11:40:09 11:43:52 29° 296° (WNW) 11:47:31 437.485
BEESAT 3 06 Jul 11:41:50 11:44:41 18° 353° (N) 11:47:30 437.485
AAUSAT CUBESAT 2 06 Jul 11:45:47 11:49:36 33° 295° (WNW) 11:53:24 437.432
DELFI C3 06 Jul 11:46:22 11:50:28 82° 287° (WNW) 11:54:33 145.870
CINEMA 3 06 Jul 11:48:47 11:52:35 34° 294° (WNW) 11:56:23 145.822/145.860
ESTCUBE 1 06 Jul 11:49:42 11:52:42 17° 87° (E) 11:55:48 437.505/2401.250
AIST 2 06 Jul 11:50:12 11:53:45 24° 339° (NNW) 11:57:16 435.215
NANOSAT C BR1 06 Jul 11:52:09 11:56:23 68° 257° (WSW) 12:00:36 145.865
BEESAT 2 06 Jul 11:57:10 12:00:01 18° 354° (N) 12:02:51 435.950
VELOX 1 06 Jul 11:58:04 12:01:50 27° 93° (E) 12:05:38 145.980
ISS 06 Jul 11:58:09 12:01:22 61° 185° (S) 12:04:35 145.825
DUCHIFAT 1 06 Jul 11:58:23 12:02:35 61° 258° (WSW) 12:06:46 145.980
DX 1 06 Jul 11:59:08 12:03:19 43° 98° (E) 12:07:28 434.975-435.025
ANTELSAT 06 Jul 12:03:35 12:07:15 27° 267° (W) 12:10:53 437.575/2403.000
GONETS M04 06 Jul 12:03:38 12:11:24 33° 303° (WNW) 12:19:02
BUGSAT 1 06 Jul 12:05:43 12:09:56 73° 256° (WSW) 12:14:07 437.445
POLYITAN 1 06 Jul 12:06:24 12:10:31 49° 260° (W) 12:14:39 437.675
COMPASS 1 06 Jul 12:14:24 12:17:24 19° 301° (WNW) 12:20:19 437.405
ZACube-1 06 Jul 12:15:20 12:19:27 53° 290° (WNW) 12:23:36 437.345
TIGRISAT 06 Jul 12:15:22 12:18:45 22° 269° (W) 12:22:03 435.000
HUMSAT D 06 Jul 12:16:22 12:20:33 80° 104° (ESE) 12:24:45 437.325/437.525
UKube-1 06 Jul 12:16:42 12:21:00 58° 102° (ESE) 12:25:17 .
Oscar 11 06 Jul 12:19:34 12:23:30 34° 295° (WNW) 12:27:26 145.826/435.025
CUBEBUG 2 06 Jul 12:22:48 12:26:33 32° 295° (WNW) 12:30:19 437.445
Oscar 19 06 Jul 12:24:06 12:27:53 22° 55° (NE) 12:31:47 437.125/150
CUTE 1.7 + AOD 2 06 Jul 12:32:59 12:34:11 11° 308° (NW) 12:35:14 437.475
QB50P2 06 Jul 12:36:28 12:40:07 27° 267° (W) 12:43:43 145.880/145.840
POPSAT HIP 1 06 Jul 12:36:34 12:40:15 27° 267° (W) 12:43:53 437.405
Cosmos 2499 06 Jul 12:39:56 12:46:52 57° 289° (WNW) 12:54:04 435.465 / 435.565
ITAMSAT 1 06 Jul 12:42:33 12:44:43 13° 46° (NE) 12:47:02 435.822/435.867
AISAT 06 Jul 12:45:34 12:50:01 72° 103° (ESE) 12:54:25 437.250
Gurwin Techsat 1B 06 Jul 12:48:27 12:51:09 14° 48° (NE) 12:54:00 435.225
TISAT 1 06 Jul 12:49:03 12:50:30 12° 84° (E) 12:52:08 437.305
FUNcube-1 06 Jul 12:50:55 12:54:31 28° 297° (WNW) 12:58:08 145.935
CUBEBUG 1 06 Jul 12:56:32 13:00:52 55° 100° (E) 13:05:08 437.445
AO-7 06 Jul 12:58:35 13:03:27 18° 26° (NNE) 13:08:30 29.400- 29.500
HO-68 06 Jul 13:08:14 13:13:22 21° 317° (NW) 13:18:20 435.675
UWE-3 06 Jul 13:10:03 13:12:48 17° 302° (WNW) 13:15:30 435.000/436.395/437.385
50 SAT 06 Jul 13:13:13 13:17:02 51° 290° (WNW) 13:20:50 437.505
QB50P1 06 Jul 13:17:33 13:19:34 13° 275° (W) 13:21:25 145.935-145.965
BEESAT 3 06 Jul 13:20:47 13:23:56 21° 17° (NNE) 13:27:05 437.485
DELFI C3 06 Jul 13:22:53 13:24:56 13° 305° (NW) 13:26:53 145.870
ESTCUBE 1 06 Jul 13:25:35 13:30:10 74° 287° (WNW) 13:34:41 437.505/2401.250
RS-15 06 Jul 13:26:56 13:36:51 33° 253° (WSW) 13:46:47 29.354- 29.394
AIST 2 06 Jul 13:30:37 13:33:36 18° 3° (N) 13:36:35 435.215
YUBILEINY 06 Jul 13:33:58 13:41:46 35° 58° (ENE) 13:49:41 435.215
VELOX 1 06 Jul 13:34:21 13:38:36 45° 293° (WNW) 13:42:47 145.980
ISS 06 Jul 13:34:33 13:37:28 31° 204° (SSW) 13:40:23 145.825
DX 1 06 Jul 13:35:39 13:39:26 28° 298° (WNW) 13:43:08 434.975-435.025
BEESAT 2 06 Jul 13:36:08 13:39:22 22° 18° (NNE) 13:42:36 435.950
JAS-2 06 Jul 13:40:33 13:42:57 13° 43° (NE) 13:45:38 435.910
BUGSAT 1 06 Jul 13:45:37 13:46:14 10° 277° (W) 13:46:38 437.445
SPROUT 06 Jul 13:50:01 13:54:17 61° 101° (ESE) 13:58:31 437.525
HUMSAT D 06 Jul 13:53:08 13:55:49 17° 303° (WNW) 13:58:25 437.325/437.525
UKube-1 06 Jul 13:53:25 13:56:49 23° 301° (WNW) 14:00:10 .
Oscar 19 06 Jul 14:01:36 14:06:45 81° 256° (WSW) 14:11:56 437.125/150
Cosmos 2491 06 Jul 14:07:53 14:13:17 19° 72° (ENE) 14:19:04 435.465 / 435.565
GONETS M04 06 Jul 14:09:12 14:12:02 11° 334° (NNW) 14:14:35
BEESAT 06 Jul 14:14:39 14:17:47 17° 87° (E) 14:21:02 436.000
ITAMSAT 1 06 Jul 14:18:08 14:23:12 52° 66° (ENE) 14:28:18 435.822/435.867
TISAT 1 06 Jul 14:22:48 14:27:02 84° 108° (ESE) 14:31:13 437.305
AISAT 06 Jul 14:22:57 14:26:10 20° 303° (WNW) 14:29:16 437.250
Gurwin Techsat 1B 06 Jul 14:24:59 14:30:12 59° 68° (ENE) 14:35:27 435.225
SWISSCUBE 06 Jul 14:30:07 14:34:03 25° 91° (E) 14:38:01 437.505
CUBEBUG 1 06 Jul 14:33:25 14:36:56 24° 300° (WNW) 14:40:22 437.445
ITUPSAT 1 06 Jul 14:36:31 14:40:30 26° 92° (E) 14:44:32 437.325
Cosmos 2499 06 Jul 14:37:50 14:42:07 16° 317° (NW) 14:46:16 435.465 / 435.565
AO-7 06 Jul 14:46:38 14:54:10 41° 51° (NE) 15:01:51 29.400- 29.500
BEESAT 3 06 Jul 14:58:37 15:02:40 55° 39° (NE) 15:06:39 437.485
HORYU 2 06 Jul 14:58:39 15:01:58 22° 58° (ENE) 15:05:23 437.375
ESTCUBE 1 06 Jul 15:03:48 15:06:19 14° 307° (NW) 15:08:42 437.505/2401.250
PCSat 06 Jul 15:05:22 15:07:44 13° 105° (ESE) 15:10:22 145.827
AIST 2 06 Jul 15:09:37 15:13:22 29° 26° (NNE) 15:17:06 435.215
BEESAT 2 06 Jul 15:14:04 15:18:11 60° 41° (NE) 15:22:13 435.950
JAS-2 06 Jul 15:21:44 15:26:49 53° 66° (ENE) 15:32:23 435.910
SPROUT 06 Jul 15:26:45 15:30:02 21° 301° (WNW) 15:33:14 437.525
Cosmos 2504 06 Jul 15:30:18 15:35:44 22° 53° (NE) 15:41:38 435.465 / 435.565
YUBILEINY 06 Jul 15:30:47 15:39:32 75° 264° (W) 15:48:17 435.215
AIST 1 06 Jul 15:36:55 15:40:34 26° 89° (E) 15:44:17
STARS 06 Jul 15:39:22 15:41:23 13° 85° (E) 15:43:35 437.465
Oscar 19 06 Jul 15:44:07 15:47:02 15° 276° (W) 15:49:46 437.125/150
O/OREOS (USA 219) 06 Jul 15:45:02 15:48:42 24° 41° (NE) 15:52:26 437.305
BEESAT 06 Jul 15:51:27 15:56:17 81° 287° (WNW) 16:01:06 436.000
ITAMSAT 1 06 Jul 15:58:20 16:02:58 31° 267° (W) 16:07:35 435.822/435.867
TISAT 1 06 Jul 15:59:39 16:02:17 16° 304° (WNW) 16:04:49 437.305
Cosmos 2491 06 Jul 15:59:57 16:08:41 69° 95° (E) 16:17:26 435.465 / 435.565
Gurwin Techsat 1B 06 Jul 16:06:03 16:10:35 27° 269° (W) 16:15:04 435.225
SWISSCUBE 06 Jul 16:07:31 16:12:16 57° 291° (WNW) 16:16:58 437.505
ITUPSAT 1 06 Jul 16:14:00 16:18:44 55° 292° (WNW) 16:23:26 437.325
KKS-1 06 Jul 16:28:01 16:32:22 52° 100° (E) 16:36:42 437.445
HORYU 2 06 Jul 16:33:51 16:38:14 64° 257° (WSW) 16:42:40 437.375
BEESAT 3 06 Jul 16:36:54 16:40:25 27° 240° (WSW) 16:43:50 437.485
AO-7 06 Jul 16:38:16 16:46:38 71° 254° (WSW) 16:55:02 29.400- 29.500
PCSat 06 Jul 16:44:54 16:50:15 64° 124° (SE) 16:55:40 145.827
AIST 2 06 Jul 16:48:06 16:52:21 77° 228° (SW) 16:56:32 435.215
BEESAT 2 06 Jul 16:52:33 16:55:58 25° 241° (WSW) 16:59:18 435.950
MOZHAYETS 4 06 Jul 17:02:48 17:06:01 19° 87° (E) 17:09:21
JAS-2 06 Jul 17:07:47 17:12:24 29° 269° (W) 17:17:15 435.910
CUTE-I 06 Jul 17:11:54 17:15:56 23° 54° (NE) 17:20:05 437.470
AIST 1 06 Jul 17:13:50 17:18:03 43° 288° (WNW) 17:22:18
STARS 06 Jul 17:14:10 17:18:35 88° 112° (ESE) 17:22:58 437.465
Cosmos 2504 06 Jul 17:21:53 17:29:18 77° 77° (ENE) 17:37:18 435.465 / 435.565
O/OREOS (USA 219) 06 Jul 17:24:06 17:28:37 72° 243° (WSW) 17:33:08 437.305
YUBILEINY 06 Jul 17:28:55 17:35:01 21° 286° (WNW) 17:40:49 435.215
BEESAT 06 Jul 17:30:25 17:33:28 17° 307° (NW) 17:36:24 436.000
SO-50 06 Jul 17:32:51 17:37:25 45° 125° (SE) 17:42:08 436.795
Cubesat XI-IV 06 Jul 17:45:45 17:50:37 37° 62° (ENE) 17:55:33 437.490
SWISSCUBE 06 Jul 17:47:09 17:49:13 13° 311° (NW) 17:51:09 437.505
ITUPSAT 1 06 Jul 17:53:43 17:55:42 12° 312° (NW) 17:57:31 437.325
Cosmos 2491 06 Jul 17:58:11 18:06:19 38° 300° (WNW) 18:14:20 435.465 / 435.565
KKS-1 06 Jul 18:05:06 18:08:46 25° 300° (WNW) 18:12:22 437.445
CUSAT 1 06 Jul 18:08:13 18:09:17 12° 58° (ENE) 18:10:25 437.405
GONETS M04 06 Jul 18:10:36 18:16:19 19° 42° (NE) 18:22:15
HO-68 06 Jul 18:23:26 18:27:41 18° 38° (NE) 18:32:08 435.675
AIST 2 06 Jul 18:28:05 18:30:17 14° 247° (WSW) 18:32:19 435.215
PCSat 06 Jul 18:28:59 18:34:02 38° 326° (NNW) 18:39:06 145.827
AO-7 06 Jul 18:35:23 18:41:12 19° 278° (W) 18:46:39 29.400- 29.500
MOZHAYETS 4 06 Jul 18:39:08 18:43:49 72° 287° (WNW) 18:48:26
GOMX 1 06 Jul 18:46:13 18:47:55 12° 52° (NE) 18:49:45 467.674
CUTE-I 06 Jul 18:50:06 18:55:29 83° 253° (WSW) 19:00:56 437.470
STARS 06 Jul 18:51:41 18:54:29 17° 305° (NW) 18:57:11 437.465
O/OREOS (USA 219) 06 Jul 19:05:46 19:07:17 11° 262° (W) 19:08:36 437.305
CUBESAT XI-V 06 Jul 19:12:44 19:16:54 31° 93° (E) 19:21:04 437.345
SO-50 06 Jul 19:13:18 19:18:00 48° 326° (NNW) 19:22:50 436.795
Cosmos 2504 06 Jul 19:14:47 19:20:58 29° 278° (W) 19:27:19 435.465 / 435.565
DOVE 4 06 Jul 19:17:41 19:19:49 14° 55° (NE) 19:22:05 437.250
BRITE-PL 06 Jul 19:20:13 19:24:45 31° 64° (ENE) 19:29:05 437.365/2234.400
Cubesat XI-IV 06 Jul 19:25:28 19:30:39 46° 261° (W) 19:35:52 437.490
DANDE 06 Jul 19:28:22 19:31:23 72° 75° (ENE) 19:34:01 436.750
SEEDS 06 Jul 19:29:48 19:31:12 12° 53° (NE) 19:32:44 437.485
STRAND 1 06 Jul 19:29:56 19:33:27 19° 87° (E) 19:37:07 437.568
CINEMA 3 06 Jul 19:45:49 19:47:10 11° 53° (NE) 19:48:40 145.822/145.860
CUSAT 1 06 Jul 19:49:42 19:52:10 30° 264° (W) 19:54:31 437.405
PRISM 06 Jul 19:58:30 20:02:01 25° 93° (E) 20:05:33 437.425
COMPASS 1 06 Jul 20:01:21 20:04:03 17° 58° (ENE) 20:06:51 437.405
Cosmos 2491 06 Jul 20:02:38 20:06:38 13° 330° (NNW) 20:10:20 435.465 / 435.565
GONETS M04 06 Jul 20:07:00 20:15:35 58° 70° (ENE) 20:24:08
HO-68 06 Jul 20:07:11 20:14:01 51° 60° (ENE) 20:20:54 435.675
Oscar 11 06 Jul 20:11:36 20:12:54 11° 51° (NE) 20:14:21 145.826/435.025
PCSat 06 Jul 20:14:53 20:18:56 21° 351° (N) 20:22:58 145.827
CUBEBUG 2 06 Jul 20:17:16 20:18:34 11° 53° (NE) 20:20:00 437.445
MOZHAYETS 4 06 Jul 20:17:45 20:20:18 14° 307° (NW) 20:22:43
CUTE 1.7 + AOD 2 06 Jul 20:18:26 20:22:10 32° 64° (ENE) 20:25:58 437.475
GOMX 1 06 Jul 20:20:28 20:25:20 58° 70° (ENE) 20:29:53 467.674
CANX-2 06 Jul 20:22:02 20:25:54 37° 66° (ENE) 20:29:50 2200.000
Cosmos 2499 06 Jul 20:28:57 20:34:54 24° 53° (NE) 20:41:21 435.465 / 435.565
CUTE-I 06 Jul 20:33:08 20:36:30 16° 276° (W) 20:39:42 437.470
FUNcube-1 06 Jul 20:42:58 20:44:38 12° 54° (NE) 20:46:27 145.935
CUBESAT XI-V 06 Jul 20:50:01 20:54:30 43° 293° (WNW) 20:58:54 437.345
DOVE 4 06 Jul 20:52:18 20:56:59 72° 73° (ENE) 21:01:26 437.250
SO-50 06 Jul 20:55:34 20:59:36 24° 350° (N) 21:03:41 436.795
BRITE-PL 06 Jul 20:57:59 21:03:09 50° 261° (W) 21:07:58 437.365/2234.400
UWE-3 06 Jul 21:00:48 21:03:54 21° 60° (ENE) 21:07:03 435.000/436.395/437.385
SEEDS 06 Jul 21:02:05 21:06:14 65° 72° (ENE) 21:10:26 437.485
DELFI C3 06 Jul 21:05:46 21:08:46 21° 60° (ENE) 21:11:50 145.870
AAUSAT CUBESAT 2 06 Jul 21:06:48 21:10:49 52° 70° (ENE) 21:14:55 437.432
STRAND 1 06 Jul 21:08:11 21:13:22 82° 288° (WNW) 21:18:31 437.568
CINEMA 3 06 Jul 21:19:21 21:23:41 64° 71° (ENE) 21:27:53 145.822/145.860
DX 1 06 Jul 21:26:49 21:29:22 16° 54° (NE) 21:32:02 434.975-435.025
VELOX 1 06 Jul 21:29:09 21:30:08 11° 49° (NE) 21:31:17 145.980
PRISM 06 Jul 21:33:37 21:37:39 44° 293° (WNW) 21:41:38 437.425
COMPASS 1 06 Jul 21:35:05 21:39:15 76° 257° (WSW) 21:43:28 437.405
HUMSAT D 06 Jul 21:40:04 21:42:56 19° 59° (ENE) 21:45:53 437.325/437.525
ZACube-1 06 Jul 21:41:33 21:45:23 36° 66° (ENE) 21:49:13 437.345
UKube-1 06 Jul 21:43:08 21:46:10 19° 57° (ENE) 21:49:17 .
Oscar 11 06 Jul 21:44:02 21:48:16 60° 71° (ENE) 21:52:33 145.826/435.025
CUBEBUG 2 06 Jul 21:50:22 21:54:33 65° 72° (ENE) 21:58:42 437.445
CUTE 1.7 + AOD 2 06 Jul 21:54:08 21:58:02 36° 264° (W) 22:01:59 437.475
AUBIESAT-1 06 Jul 21:54:10 21:57:33 23° 99° (E) 22:01:09 437.475
HO-68 06 Jul 21:55:04 22:01:55 46° 262° (W) 22:08:44 435.675
CANX-2 06 Jul 21:58:07 22:01:53 31° 266° (W) 22:05:40 2200.000
GOMX 1 06 Jul 21:59:46 22:03:47 24° 269° (W) 22:07:32 467.674
PCSat 06 Jul 21:59:52 22:04:10 23° 17° (NNE) 22:08:29 145.827
GONETS M04 06 Jul 22:04:14 22:12:18 43° 274° (W) 22:20:14
AISAT 06 Jul 22:14:06 22:17:36 23° 60° (ENE) 22:21:10 437.250
FUNcube-1 06 Jul 22:16:09 22:20:18 73° 72° (ENE) 22:24:28 145.935
